Akron, OH

3:46 AM EST on December 11, 2019 (GMT -0500)
Akron Fulton International

Weather History for KAKR - October, 2019

Change the Weather History Date:

Thursday, October 24, 2019

  Actual Average (KCAK) Record (KCAK)
Temperature  
Mean Temperature 58 °F -  
Max Temperature 66 °F 60 °F 80 °F (1963)
Min Temperature 51 °F 41 °F 22 °F (1969)
Degree Days  
Heating Degree Days 6    
Growing Degree Days 8 (Base 50)    
Moisture  
Dew Point 38 °F    
Average Humidity 51    
Maximum Humidity 74    
Minimum Humidity 40    
Precipitation  
Precipitation 0.00 in - - ()
Sea Level Pressure  
Sea Level Pressure 30.21 in    
Wind  
Wind Speed 10 mph (WSW)    
Max Wind Speed 15 mph    
Max Gust Speed 22 mph    
Visibility 10 miles    
Events      
Averages and records for this station are not official NWS values.
T = Trace of Precipitation, MM = Missing Value Source: NWS Daily Summary

Daily Weather History Graph

Daily Weather History Graph

Search for Another Location

Airport or City:

Astronomy

Oct. 24, 2019 Rise Set
Actual Time 7:47 AM EDT 6:32 PM EDT
Civil Twilight 7:19 AM EDT 7:00 PM EDT
Nautical Twilight 6:46 AM EDT 7:32 PM EDT
Astronomical Twilight 6:15 AM EDT 8:04 PM EDT
Moon 3:12 AM EDT (10/24) 5:01 PM EDT (10/24)
Length of Visible Light 11h 41m
Length of Day
10h 45m
Waning Crescent, 17% of the Moon is Illuminated
Oct 24
Waning Crescent
Oct 27
New
Nov 4
First Quarter
Nov 12
Full
Nov 19
Last Quarter

Hourly Weather History & Observations

Time (EDT) Temp. Dew Point Humidity Pressure Visibility Wind Dir Wind Speed Gust Speed Precip Events Conditions
12:54 AM 52.0 °F 32.0 °F 47% 30.13 in 10.0 mi SSW 10.4 mph 21.9 mph N/A   Clear
1:54 AM 52.0 °F 33.1 °F 49% 30.14 in 10.0 mi SSW 10.4 mph - N/A   Clear
2:54 AM 51.1 °F 33.1 °F 50% 30.15 in 10.0 mi SSW 9.2 mph - N/A   Clear
3:54 AM 52.0 °F 33.1 °F 49% 30.14 in 10.0 mi SSW 10.4 mph - N/A   Partly Cloudy
4:54 AM 51.1 °F 32.0 °F 48% 30.14 in 10.0 mi SSW 10.4 mph - N/A   Partly Cloudy
5:54 AM 53.1 °F 32.0 °F 45% 30.14 in 10.0 mi SSW 13.8 mph - N/A   Clear
6:54 AM 53.1 °F 32.0 °F 45% 30.17 in 10.0 mi SW 9.2 mph - N/A   Overcast
7:54 AM 52.0 °F 33.1 °F 49% 30.18 in 10.0 mi SSW 10.4 mph - N/A   Scattered Clouds
8:54 AM 53.1 °F 34.0 °F 48% 30.20 in 10.0 mi SSW 10.4 mph - N/A   Unknown
9:54 AM 57.0 °F 34.0 °F 42% 30.22 in 10.0 mi SW 13.8 mph 21.9 mph N/A   Overcast
10:54 AM 57.9 °F 35.1 °F 42% 30.22 in 10.0 mi SW 12.7 mph - N/A   Mostly Cloudy
11:54 AM 61.0 °F 37.0 °F 41% 30.22 in 10.0 mi SW 15.0 mph 19.6 mph N/A   Overcast
12:54 PM 63.0 °F 37.9 °F 40% 30.23 in 10.0 mi West 11.5 mph - N/A   Overcast
1:54 PM 64.0 °F 39.9 °F 41% 30.21 in 10.0 mi Variable 6.9 mph - N/A   Clear
2:54 PM 66.0 °F 41.0 °F 40% 30.20 in 10.0 mi Variable 5.8 mph - N/A   Mostly Cloudy
3:54 PM 66.0 °F 41.0 °F 40% 30.21 in 10.0 mi West 9.2 mph - N/A   Clear
4:54 PM 66.0 °F 41.0 °F 40% 30.21 in 10.0 mi West 8.1 mph - N/A   Clear
5:54 PM 61.0 °F 44.1 °F 54% 30.22 in 10.0 mi North 8.1 mph - N/A   Clear
6:54 PM 57.9 °F 44.1 °F 60% 30.23 in 10.0 mi North 5.8 mph - N/A   Clear
7:54 PM 55.0 °F 44.1 °F 67% 30.26 in 10.0 mi North 8.1 mph - N/A   Mostly Cloudy
8:54 PM 54.0 °F 44.1 °F 69% 30.27 in 10.0 mi North 6.9 mph - N/A   Scattered Clouds
9:54 PM 54.0 °F 43.0 °F 66% 30.28 in 10.0 mi NNE 4.6 mph - N/A   Overcast
10:54 PM 53.1 °F 44.1 °F 71% 30.29 in 10.0 mi NE 4.6 mph - N/A   Mostly Cloudy
11:54 PM 52.0 °F 44.1 °F 74% 30.29 in 10.0 mi NNE 3.5 mph - N/A   Overcast